Regional Weather Roundup
Issued by NWS Charleston, SC

Current Version | Previous Version | Text Only | Print | Product List | Glossary Off
Versions: 1 2 3 4 5 6 7 8 9 10 11 12 13 14 15 16 17 18 19 20 21 22 23 24 25 26 27 28 29 30 31 32 33 34 35 36 37 38 39 40 41 42 43 44 45 46 47 48 49 50
000 ASUS42 KCHS 191726 RWRCHS REGIONAL WEATHER ROUNDUP NATIONAL WEATHER SERVICE CHARLESTON SC 100 PM EDT SUN APR 19 2015 NOTE: "FAIR" INDICATES FEW OR NO CLOUDS BELOW 12,000 FEET WITH NO SIGNIFICANT WEATHER AND/OR OBSTRUCTIONS TO VISIBILITY. NOT ALL STATIONS ARE QUALITY CONTROLLED BY THE NATIONAL WEATHER SERVICE. USE DATA WITH CAUTION...ESPECIALLY DEWPOINT OBSERVATIONS. SCZ027-030-031-034>040-042>050-191800- ...SOUTHEAST SOUTH CAROLINA... CITY SKY/WX TMP DP RH WIND PRES REMARKS N CHARLESTON LGT RAIN 74 69 85 SE12 29.93R WATERFRONT PRK N/A 72 N/A N/A E12 N/A MOUNT PLEASANT FAIR 72 70 94 E6 29.94R PINOPOLIS NOT AVBL MONCKS CORNER LGT RAIN 73 68 83 E5 29.92S SUMMERVILLE DRIZZLE 72 72 100 E5 29.91F BEAUFORT MCAS N/A N/A N/A N/A MISG 29.93R BEAUFORT ARPT CLOUDY 72 72 100 CALM 29.93R FOG HILTON HEAD IS CLOUDY 73 72 94 S10 29.94R WALTERBORO CLOUDY 72 70 94 S8 29.93R ALLENDALE CLOUDY 75 72 88 S12 29.89F ...SOUTHERN MIDLANDS AND PEE DEE... CITY SKY/WX TMP DP RH WIND PRES REMARKS GEORGETOWN NOT AVBL KINGSTREE NOT AVBL ORANGEBURG LGT RAIN 71 67 87 SE8 29.91F BARNWELL PTSUNNY 77 72 83 SE10 29.89F AIKEN CLOUDY 72 68 88 SE10 29.92S MANNING LGT RAIN 70 61 73 SE7 29.91F COLUMBIA CLOUDY 71 67 87 SE9 29.89S SUMTER CLOUDY 70 68 94 E10 29.88F FLORENCE LGT RAIN 72 68 87 CALM 29.92F MYRTLE BEACH PTSUNNY 73 66 78 SE9 29.95F N MYRTLE BEACH CLOUDY 71 66 84 E9 29.94F $$ GAZ063-065-086>088-099>101-113>116-118-119-134>141-150-191800- ...SOUTHEAST GEORGIA... CITY SKY/WX TMP DP RH WIND PRES REMARKS SAVANNAH ARPT CLOUDY 79 70 73 S12 29.91S HUNTER AAF PTSUNNY 77 74 91 S10 29.89F FORT STEWART PTSUNNY 81 72 74 SE9 29.87F STATESBORO N/A 78 76 94 S9G17 29.88F SYLVANIA CLOUDY 77 72 85 S8 29.90F CLAXTON FAIR 79 72 78 S3 29.88F ...CSRA...CENTRAL AND FAR SOUTHEAST GEORGIA... CITY SKY/WX TMP DP RH WIND PRES REMARKS THOMSON CLOUDY 75 73 92 CALM 29.91F AUGUSTA-BUSH CLOUDY 76 70 82 S12 29.87F AUGUSTA-DANIEL CLOUDY 75 68 78 S13 29.89S SWAINSBORO NOT AVBL VIDALIA RAIN 77 72 83 S8 29.87F EASTMAN TSTM 73 73 100 S6 29.89F HAZLEHURST DRIZZLE 78 73 83 S7 29.86F ALMA LGT RAIN 76 71 85 SE6 29.88F WAYCROSS CLOUDY 84 75 74 S6 29.87F HX 92 JESUP FAIR 81 73 78 S5 29.88F BAXLEY PTSUNNY 79 72 78 S5 29.88S BRUNSWICK MOSUNNY 81 70 69 SE8 29.90F SAINT SIMONS MOSUNNY 77 72 84 S8G16 29.91F $$ SCZ027-028-034-036>038-045-046-048>050-GAZ119-141-191800- ...LAKE AND SUPPLEMENTAL COASTAL OBSERVATIONS... STATION/POSITION TIME TEMP WIND PRES WAVE SWELL AIR SEA DIR/SP/G HT/PER HT/PER/DIR (UTC) (F) (DEG/KT/KT) (MB) (FT/S) (FT/S/D) UPR LAKE MARION NOT AVBL WINYAH BAY 1600 69 90/ 7 1013.0 LAKE MURRAY 1700 68 130/ 4/ 7 1011.9S ACE BASIN NERRS NOT AVBL FORT PULASKI 1700 74 71 160/ 4/ 10 1013.8R SAPELO ISLAND 1600 78 160/ 10 1013.0R $$ ANZ835-935-AMZ111-154-330-350-352-354-370-450-454-472-191800- ...C-MAN AND BUOY OBSERVATIONS... STATION/POSITION TIME TEMP WIND PRES WAVE SWELL AIR SEA DIR/SP/G HT/PER HT/PER/DIR (UTC) (F) (DEG/KT/KT) (MB) (FT/S) (FT/S/D) BUOY 41004 1650 74 75 110/ 14/ 16 1012.8F 3/ 8 2/ 8 BUOY 41008 1650 71 70 160/ 4/ 4 1013.4F 2/ 9 2/ 90/ 9 FOLLY BEACH CMAN 1700 69 110/ 6/ 8 1013.2R CAPERS NEARSHORE NOT AVBL FRIPP NEARSHORE 1600 70 120/ 8/ 10 1012.5R STATION/POSITION TIME TEMP WIND PRES WAVE SWELL AIR SEA DIR/SP/G HT/PER HT/PER/DIR (UTC) (F) (DEG/KT/KT) (MB) (FT/S) (FT/S/D) 5E ST. MARYS GA 1621 72 N/A 2/ 9 2/100/13 FRYING PAN BUOY 1650 75 73 130/ 16/ 19 1014.5F 4/ 5 2/110/ 8 BUOY 41025 1650 74 75 110/ 17/ 21 1016.4F 4/12 3/ 50/12 CAPE LOOKOUT NC 1700 71 80/ 10/ 11 1015.3F BUOY 41002 1650 73 75 100/ 12/ 16 1016.1F 4/13 3/ 80/13 BUOY 41010 1620 79 79 150/ 12/ 12 1014.1F ST AUGUSTINE FL 1700 74 71 160/ 4/ 4 1013.6F $$

USA.gov is the U.S. government's official web portal to all federal, state and local government web resources and services.